Regional Weather Roundup
Issued by NWS

Home | Current Version | Previous Version | Graphics & Text | Print | Product List | Glossary On
Versions: 1 2 3 4 5 6 7 8 9 10 11 12 13 14 15 16 17 18 19 20 21 22 23 24 25 26 27 28 29 30 31 32 33 34 35 36 37 38 39 40 41 42 43 44 45 46 47 48 49 50
000
ASUS43 KMKX 011100
RWRWI

WISCONSIN REGIONAL WEATHER ROUNDUP
NATIONAL WEATHER SERVICE MILWAUKEE/SULLIVAN WI
600 AM CDT WED OCT 01 2014

NOTE: "FAIR" INDICATES FEW OR NO CLOUDS BELOW 12,000 FEET WITH NO
SIGNIFICANT WEATHER AND/OR OBSTRUCTIONS TO VISIBILITY.

WIZ001-002-006>008-014>016-023>028-011200-
NORTHWEST WISCONSIN

CITY           SKY/WX    TMP DP  RH WIND       PRES   REMARKS
SUPERIOR ARPT  CLOUDY    47  44  89 E5        29.88S
ASHLAND        PTCLDY    44  42  93 CALM      29.92F
HAYWARD        CLOUDY    47  43  86 SE8       29.91F
SIREN          CLOUDY    48  43  81 SE10G16   29.86F
CUMBERLAND     CLOUDY    45  43  93 SE7G16    29.90S
RICE LAKE      CLOUDY    47  42  83 SE15      29.93R
CHETEK         CLOUDY    47  44  88 SE13      29.92F
LADYSMITH      CLOUDY    47  43  87 SE8       29.96F
EAU CLAIRE     NOT AVBL
MENOMONIE      CLOUDY    48  44  87 E9        29.91F
NEW RICHMOND   CLOUDY    47  43  85 SE8       29.87S
OSCEOLA        CLOUDY    49  45  85 SE10      29.88F
$$

WIZ003>005-009-010-017-018-011200-
NORTH CENTRAL WISCONSIN

CITY           SKY/WX    TMP DP  RH WIND       PRES   REMARKS
MANITOWISH WTR CLOUDY    43  43 100 S9        29.97F FOG
ARBOR VITAE    CLOUDY    44  42  94 S12       29.98F FOG
WOODRUFF       CLOUDY    44  42  94 S12       29.98F FOG
RHINELANDER    CLOUDY    44  42  93 S9        30.00F
EAGLE RIVER    MIX PCPN  43  43 100 S7        29.98F
LAND O LAKES   CLOUDY    44  44  99 S8G17     29.99F FOG
PHILLIPS       CLOUDY    44  42  93 SE7       29.96F
TOMAHAWK       CLOUDY    43  42  97 CALM      30.00R FOG
MEDFORD        CLOUDY    43  43  98 SE7       29.98R FOG
MERRILL        CLOUDY    44  44 100 SE5       30.00S FOG
$$

WIZ029-030-035-036-043>047-011200-
CENTRAL WISCONSIN

CITY           SKY/WX    TMP DP  RH WIND       PRES   REMARKS
WAUSAU         CLOUDY    46  45  96 SE6       30.00S FOG
MOSINEE        CLOUDY    45  45 100 SE6       30.01S
MARSHFIELD     CLOUDY    47  45  93 SE12      29.97F FOG
STEVENS POINT  DRIZZLE   45  45  99 S5        30.01S
WAUPACA        CLOUDY    50  48  95 CALM      30.02R FOG
WAUTOMA        NOT AVBL
WISC RAPIDS    CLOUDY    47  46  97 SE5       30.01S
CAMP DOUGLAS   CLOUDY    48  48 100 SE7       29.96F
$$

WIZ011>013-019>022-031-037>040-048>050-011200-
NORTHEAST WISCONSIN

CITY           SKY/WX    TMP DP  RH WIND       PRES   REMARKS
ANTIGO         CLOUDY    44  44 100 S5        30.01S FOG
SHAWANO        CLOUDY    49  47  93 CALM      30.02S FOG
OCONTO         CLOUDY    50  50 100 CALM      30.02R
STURGEON BAY   NOT AVBL
GREEN BAY      CLOUDY    50  49  96 CALM      30.02S
MANITOWOC      NOT AVBL
APPLETON       DRIZZLE   48  48 100 CALM      30.02R FOG
CLINTONVILLE   CLOUDY    46  45  93 CALM      30.02R FOG
OSHKOSH        CLOUDY    50  49  96 CALM      30.01R
$$

WIZ032>034-041-042-053>061-011200-
SOUTHWEST WISCONSIN

CITY           SKY/WX    TMP DP  RH WIND       PRES   REMARKS
LA CROSSE      CLOUDY    51  45  79 SE8       29.94F
SPARTA         CLOUDY    48  44  85 SE6       29.96F
VIROQUA        CLOUDY    47  47 100 SE8       29.94F
BOSCOBEL       CLOUDY    52  46  80 CALM      29.96F
PRAIRIE DU CHI CLOUDY    50  45  83 E7        29.94F
PLATTEVILLE    CLEAR     49  47  92 E10       29.95F
$$

WIZ056-057-062-063-064-067-068-011200-
SOUTH CENTRAL WISCONSIN

CITY           SKY/WX    TMP DP  RH WIND       PRES   REMARKS
REEDSBURG      CLOUDY    49  46  90 SE5       29.97F
BARABOO/DELLS  CLOUDY    49  45  87 SE5       29.98S
LONE ROCK      CLOUDY    55  46  71 SE8       29.97F
MINERAL POINT  PTCLDY    50  46  87 E8        29.95F
MADISON        NOT AVBL
MIDDLETON      CLOUDY    51  49  92 SE5       29.99F
WATERTOWN      CLOUDY    49  49 100 CALM      30.00R
MONROE         PTCLDY    46  46 100 E7        29.97F
JANESVILLE     CLOUDY    52  48  87 E7        29.98S
$$

WIZ051-052-058>065-066-070>072-011200-
SOUTHEAST WISCONSIN

CITY           SKY/WX    TMP DP  RH WIND       PRES   REMARKS
MILWAUKEE      CLOUDY    55  48  77 S8        30.00S
WAUKESHA       CLOUDY    52  48  87 SE7       30.01R
MILWAUKEE/TIMM CLOUDY    54  48  82 S3        30.01S
RACINE         CLOUDY    57  48  72 S10       30.02R
BURLINGTON     CLOUDY    51  47  86 SE5       30.00R
KENOSHA        CLOUDY    56  48  74 S8        30.01R
FOND DU LAC    CLOUDY    50  48  93 CALM      30.01R
SHEBOYGAN      CLOUDY    53  49  86 E3        30.00F
WEST BEND      CLOUDY    50  46  87 CALM      30.00S
JUNEAU         CLOUDY    50  48  93 CALM      30.01R
$$

LSZ147-162-011200-
LAKE SUPERIOR

STATION/POSITION TIME  TEMP    WIND        PRES    WAVE
                       AIR SEA DIR/SP/G            HT/PER
                 (UTC) (F)     (DEG/KT/KT) (MB)    (FT/S)
W MID LAKE BUOY  0950   49 50  160/ 14/ 17 1014.3R   2/ 4
DEVILS ISLAND    1000   49     190/  5/  9 1013.8F
SAXON HARBOR     1000   44        CALM     1013.5F
$$

LMZ867-665-643>646-011200-
LAKE MICHIGAN

STATION/POSITION TIME  TEMP    WIND        PRES    WAVE
                       AIR SEA DIR/SP/G            HT/PER
                 (UTC) (F)     (DEG/KT/KT) (MB)    (FT/S)
CHAMBERS ISLAND  1000   52     150/  2/  7 1016.9R
S GREEN BAY BUOY 1000   52                 1017.4F
N MID LAKE BUOY  0950   54 58  190/ 10/ 10 1017.2F   1/ 3
NORTHPORT PIER   1000   53     150/  7/ 10 1016.9R
SISTER BAY       0927             CALM       N/A
KEWAUNEE LAKESHO 1000   53     160/  7/ 10 1015.7F
SHEBOYGAN LAKESH 1000   56 54  130/ 11/ 12 1016.6F
PORT WASHINGTON  1040   57     160/  9/ 11 1016.3F
ATWATER BUOY     1000   58     140/ 10/ 12 1016.6F
MILWAUKEE LAKESH 1000   57     130/ 12/ 14   N/A
S MID LAKE BUOY  0950   57 62  140/ 10/ 12 1016.6R   2/ 5
KENOSHA   LAKESH 1000   57     150/ 13/ 19 1015.6F
$$

TC  - TEMPERATURE IN CELSIUS
VSB - VISIBILITY IN STATUTE MILES
WCI - WIND CHILL INDEX
HX  - HEAT INDEX




USA.gov is the U.S. government's official web portal to all federal, state and local government web resources and services.